Flag Weather past 2 weeks in Hofheim am Taunus, Hesse, Germany

Now
39 °F

Overcast.


Feels Like: 32 °F
Forecast: 35 / 39 °F
Wind: 12 mph from East

Location: Wiesbaden Airport

Current Time: Nov 28, 2014 at 8:27:54 PM

Latest Report: Nov 28, 2014 at 7:58 PM


Visibility: N/A

Pressure: 29.94 "Hg

Humidity: 87%

Dew point: 36 °F

Location of Hofheim am TaunusLocation

Historic Weather in Hofheim am Taunus — Graph

°F

Hofheim am Taunus temperature yesterday

Maximum temperature yesterday: 43 °F (at 1:58 PM)
Minimum temperature yesterday: 39 °F (at 5:58 AM)
Average temperature yesterday: 41 °F

Past Weeks' High & Low Weather Summary

 TemperatureHumidityPressure
High54 °F (Nov 14, 1:58 PM)100% (Nov 13, 6:58 PM)30.36 "Hg (Nov 13, 6:58 PM)
Low34 °F (Nov 25, 1:58 AM)71% (Nov 21, 1:58 PM)29.53 "Hg (Nov 16, 5:59 AM)
Average45 °F91%29.99 "Hg
* Reported Nov 13 6:58 PM — Nov 28 6:58 PM, Hofheim am Taunus, Weather by CustomWeather, © 2014

Note: Actual official high and low records may vary slightly from our data, if they occured in-between our weather recording intervals... More about our weather records

Advertising

Hofheim am Taunus weather history for previous 24 hours

 ConditionsComfort  
Time TempWeatherWind HumidityBarometerVisibility
6:58 PM
Nov 28
40 °FOvercast.13 mph86%29.93 "HgN/A
5:58 PM40 °FOvercast.13 mph86%29.92 "HgN/A
4:58 PM40 °FOvercast.13 mph87%29.91 "HgN/A
3:58 PM40 °FOvercast.13 mph88%29.89 "HgN/A
2:58 PM41 °FOvercast.13 mph87%29.88 "HgN/A
1:58 PM41 °FOvercast.12 mph87%29.88 "HgN/A
12:58 PM41 °FOvercast.15 mph87%29.89 "HgN/A
11:58 AM41 °FOvercast.13 mph87%29.90 "HgN/A
10:58 AM41 °FOvercast.9 mph87%29.90 "HgN/A
9:58 AM41 °FFog.8 mph87%29.90 "Hg6 mi
8:58 AM41 °FOvercast.9 mph87%29.88 "HgN/A
7:58 AM40 °FOvercast.8 mph90%29.88 "HgN/A
6:58 AM40 °FMostly cloudy.10 mph89%29.86 "HgN/A
5:58 AM39 °FClear.9 mph93%29.87 "HgN/A
4:58 AM39 °FClear.10 mph87%29.86 "HgN/A
3:58 AM39 °FClear.8 mph89%29.86 "HgN/A
2:58 AM39 °FPassing clouds.9 mph93%29.86 "HgN/A
1:58 AM40 °FPassing clouds.9 mph88%29.85 "HgN/A
12:58 AM40 °FClear.9 mph88%29.85 "HgN/A
11:58 PM
Nov 27
41 °FClear.10 mph87%29.85 "HgN/A
10:58 PM41 °FClear.7 mph87%29.85 "HgN/A
9:58 PM41 °FOvercast.8 mph87%29.85 "HgN/A
8:58 PM43 °FOvercast.9 mph81%29.85 "HgN/A
Weather by CustomWeather, © 2014

See weather overviewHow to use our weather pages